Kalamata, Greece

6:39 AM EEST on August 21, 2017 (GMT +0300)
Kalamata Air Base

Weather History for LGKL - October, 2012

Change the Weather History Date:

Thursday, October 18, 2012

  Actual Average Record
Temperature  
Mean Temperature 72 °F -  
Max Temperature 84 °F 72 °F 84 °F (2012)
Min Temperature 60 °F 52 °F 41 °F (2011)
Cooling Degree Days 7    
Growing Degree Days 22 (Base 50)    
Moisture  
Dew Point 60 °F    
Average Humidity 66    
Maximum Humidity 94    
Minimum Humidity 33    
Precipitation  
Precipitation 0.00 in 0.16 in - ()
Sea Level Pressure  
Sea Level Pressure 30.08 in    
Wind  
Wind Speed 3 mph ()    
Max Wind Speed 7 mph    
Max Gust Speed -    
Visibility 6.2 miles    
Events      
Averages and records for this station are not official NWS values.
T = Trace of Precipitation, MM = Missing Value Source: Averaged Metar Reports

Daily Weather History Graph

Daily Weather History Graph

Search for Another Location

Airport or City:

Trip Planner

Search our weather history database for the weather conditions in past years. The results will help you decide how hot, cold, wet, or windy it might be!

Date:

Astronomy

Oct. 18, 2012 Rise Set
Actual Time 7:42 AM EEST 6:50 PM EEST
Civil Twilight 7:16 AM EEST 7:17 PM EEST
Nautical Twilight 6:46 AM EEST 7:47 PM EEST
Astronomical Twilight 6:15 AM EEST 8:17 PM EEST
Moon 10:59 AM EEST (10/18) 9:11 PM EEST (10/18)
Length of Visible Light 12h 00m
Length of Day
11h 08m
Waxing Crescent, 12% of the Moon is Illuminated
Oct 18
Waxing Crescent
Oct 22
First Quarter
Oct 29
Full
Nov 7
Last Quarter
Nov 14
New

Hourly Weather History & Observations

Time (EEST) Temp. Heat Index Dew Point Humidity Pressure Visibility Wind Dir Wind Speed Gust Speed Precip Events Conditions
2:50 AM 64.4 °F - 59.0 °F 83% 30.09 in 6.2 mi NW 4.6 mph - N/A   Partly Cloudy
5:50 AM 62.6 °F - 55.4 °F 77% 30.06 in - Calm Calm - N/A   Clear
6:20 AM 60.8 °F - 55.4 °F 82% 30.06 in - Calm Calm - N/A   Clear
6:50 AM 60.8 °F - 55.4 °F 82% 30.06 in - Calm Calm - N/A   Clear
7:20 AM 60.8 °F - 55.4 °F 82% 30.09 in - NNW 4.6 mph - N/A   Clear
7:50 AM 60.8 °F - 55.4 °F 82% 30.09 in 6.2 mi Calm Calm - N/A   Partly Cloudy
8:20 AM 60.8 °F - 55.4 °F 82% 30.09 in 6.2 mi Calm Calm - N/A   Partly Cloudy
8:50 AM 62.6 °F - 57.2 °F 82% 30.09 in 6.2 mi NNW 5.8 mph - N/A   Partly Cloudy
9:20 AM 68.0 °F - 57.2 °F 68% 30.09 in 6.2 mi North 4.6 mph - N/A   Partly Cloudy
9:50 AM 71.6 °F - 59.0 °F 64% 30.09 in 6.2 mi North 4.6 mph - N/A   Partly Cloudy
10:20 AM 75.2 °F - 59.0 °F 57% 30.12 in 6.2 mi NNW 4.6 mph - N/A   Partly Cloudy
10:50 AM 77.0 °F - 57.2 °F 50% 30.12 in 6.2 mi North 4.6 mph - N/A   Partly Cloudy
11:20 AM 78.8 °F - 59.0 °F 51% 30.12 in 6.2 mi Calm Calm - N/A   Partly Cloudy
11:50 AM 82.4 °F 81.4 °F 53.6 °F 37% 30.12 in 6.2 mi Calm Calm - N/A   Partly Cloudy
12:20 PM 82.4 °F 81.7 °F 55.4 °F 39% 30.09 in 6.2 mi Calm Calm - N/A   Partly Cloudy
12:50 PM 84.2 °F 82.8 °F 53.6 °F 35% 30.09 in 6.2 mi SSE 4.6 mph - N/A   Partly Cloudy
1:20 PM 84.2 °F - 51.8 °F 33% 30.09 in 6.2 mi South 5.8 mph - N/A   Partly Cloudy
1:50 PM 84.2 °F 83.0 °F 55.4 °F 37% 30.09 in 6.2 mi South 6.9 mph - N/A   Partly Cloudy
2:20 PM 82.4 °F 82.5 °F 59.0 °F 45% 30.06 in 6.2 mi South 6.9 mph - N/A   Partly Cloudy
2:50 PM 82.4 °F 83.4 °F 62.6 °F 51% 30.06 in 6.2 mi South 6.9 mph - N/A   Partly Cloudy
3:20 PM 80.6 °F 82.3 °F 64.4 °F 58% 30.06 in 6.2 mi South 6.9 mph - N/A   Partly Cloudy
3:50 PM 80.6 °F 82.3 °F 64.4 °F 58% 30.06 in 6.2 mi South 5.8 mph - N/A   Partly Cloudy
4:20 PM 80.6 °F 82.3 °F 64.4 °F 58% 30.06 in 6.2 mi SSE 5.8 mph - N/A   Partly Cloudy
4:50 PM 78.8 °F - 66.2 °F 65% 30.06 in 6.2 mi South 5.8 mph - N/A   Partly Cloudy
5:20 PM 77.0 °F - 66.2 °F 69% 30.06 in 6.2 mi SSW 4.6 mph - N/A   Partly Cloudy
5:50 PM 75.2 °F - 66.2 °F 73% 30.06 in 6.2 mi SSE 4.6 mph - N/A   Partly Cloudy
6:20 PM 75.2 °F - 66.2 °F 73% 30.06 in 6.2 mi Calm Calm - N/A   Partly Cloudy
6:50 PM 71.6 °F - 66.2 °F 83% 30.06 in 6.2 mi Calm Calm - N/A   Partly Cloudy
7:20 PM 69.8 °F - 66.2 °F 88% 30.06 in 6.2 mi Calm Calm - N/A   Partly Cloudy
7:50 PM 68.0 °F - 66.2 °F 94% 30.06 in 6.2 mi North 4.6 mph - N/A   Partly Cloudy
8:20 PM 68.0 °F - 66.2 °F 94% 30.09 in 6.2 mi NW 4.6 mph - N/A   Partly Cloudy
8:50 PM 68.0 °F - 64.4 °F 88% 30.09 in 6.2 mi NW 4.6 mph - N/A   Partly Cloudy